[[{"header":{"parameterUnit":"m.s-1","parameterCategory":2,"la1":30.2991,"la2":30.254,"lo1":-89.0895,"lo2":-89.0444,"dy":0.0017,"dx":0.0017,"nx":28,"ny":28,"refTime":"2024-03-19T09:00:00:Z","depth":"0","parameterNumber":2,"parameterNumberName":"U-component_of_CURRENTS"},"data":[0,0,0,0,0,0,0,0,0,0,0,0,0,0,0,0,0,0,0,0,0,0,0,0,0,0,0,0,0,0,0,0,0,0,0,0,0,0,0,0,0,0,0,0,0,0,0,0,0,0,0,0,0,0,0,0,0,0,0.1523,0.1523,0,0.156,0.156,0.1561,0.1556,0.1555,0.1555,0.1554,0.1605,0.1607,0.1609,0,0,0,0,0,0,0,0,0,0,0,0,0,0.1475,0.1476,0.1523,0.1524,0.1524,0.156,0.156,0.1561,0.1556,0.1555,0.1554,0.1554,0.1604,0.1607,0.1609,0,0,0,0,0,0,0,0,0,0,0,0,0,0.1502,0.1476,0.1523,0.1526,0.1527,0.156,0.156,0.1561,0.1556,0.1555,0.1554,0.1553,0.1604,0.1606,0.1609,0.1643,0,0,0.1618,0.1619,0,0,0,0,0,0,0,0,0.15,0.1504,0.1525,0.1526,0.1527,0.1553,0.1562,0.1589,0.1556,0.1544,0.1554,0.1553,0.159,0.1594,0.1602,0.1646,0.1648,0.1618,0.162,0.1621,0.1622,0,0,0,0,0,0,0,0.1498,0.1502,0.1537,0.1526,0.1527,0.1535,0.1538,0.1567,0.1571,0.1545,0.1545,0.155,0.159,0.1599,0.1603,0.1649,0.1618,0.162,0.1622,0.1623,0.171,0.1711,0,0,0,0,0,0,0.1495,0.15,0.1536,0.1538,0.1512,0.1537,0.1539,0.1545,0.1571,0.1574,0.1551,0.155,0.1594,0.1599,0.1605,0.1656,0.1621,0.1624,0.1625,0.171,0.1711,0.1711,0,0,0,0,0,0,0.1494,0.1498,0.1534,0.152,0.1526,0.1538,0.1544,0.1546,0.1556,0.1575,0.1578,0.1559,0.1594,0.1601,0.1629,0.1657,0.1625,0.1627,0.1709,0.171,0.1711,0.1753,0,0,0,0,0,0,0.1492,0.1497,0.1501,0.152,0.1526,0.156,0.1545,0.1547,0.156,0.1559,0.1583,0.1587,0.1594,0.1625,0.1632,0.1661,0.163,0.1708,0.1709,0.1711,0.1751,0.1755,0.1759,0,0,0,0,0,0.149,0.15,0.1501,0.1506,0.1532,0.156,0.1565,0.157,0.1562,0.1574,0.1582,0.1586,0.1637,0.1628,0.1636,0.1666,0.1708,0.1709,0.1711,0.1749,0.1754,0.1759,0,0,0,0,0,0,0.1481,0.1501,0.1503,0.1518,0.154,0.156,0.1573,0.1575,0.1592,0.159,0.1599,0.1604,0.1636,0.1644,0.1633,0.1692,0.1672,0.1675,0.1698,0.1703,0.1707,0.1689,0.1632,0,0,0,0,0,0.1482,0.1495,0.1517,0.153,0.1542,0.1558,0.157,0.1577,0.1593,0.1599,0.1614,0.1629,0.165,0.1669,0.1684,0.1727,0.1759,0.1748,0.1752,0.1756,0.1745,0.1791,0.1799,0.1716,0.1716,0.1716,0,0,0.1481,0.1495,0.1501,0.1529,0.1546,0.1574,0.1563,0.1588,0.1608,0.1605,0.1635,0.1644,0.166,0.1698,0.1714,0.1711,0.1813,0.1758,0.1761,0.1747,0.1794,0.1802,0.1809,0.1717,0.1717,0.1716,0,0,0.1495,0.1501,0.1521,0.1544,0.1574,0.1588,0.1596,0.1622,0.1628,0.166,0.1658,0.1677,0.1716,0.1732,0.1745,0.1782,0.1825,0.1794,0.1814,0.1861,0.1868,0.1875,0.1999,0.2016,0.1806,0.1806,0.1806,0,0.1492,0.1523,0.1532,0.1564,0.1585,0.1595,0.1627,0.1642,0.1671,0.168,0.1672,0.1716,0.173,0.1774,0.1781,0.1793,0.1849,0.1798,0.1867,0.1874,0.188,0.2005,0.2023,0.1808,0.1808,0.1808,0.1807,0,0.1527,0.1554,0.1571,0.1611,0.1634,0.1665,0.1687,0.1706,0.1712,0.1723,0.1754,0.1768,0.1794,0.1806,0.1806,0.1859,0.19,0.1862,0.1857,0.1891,0.2022,0.204,0.1811,0.181,0.181,0.1809,0,0,0.1511,0.1581,0.1587,0.1616,0.1663,0.1685,0.1719,0.1752,0.1769,0.1789,0.1817,0.1841,0.184,0.1852,0.1863,0.1896,0.201,0.1899,0.1901,0.2029,0.2183,0.231,0.2344,0.1986,0.1987,0.1988,0.2284,0,0.1537,0.1608,0.163,0.1687,0.1726,0.1744,0.1772,0.1799,0.1815,0.1844,0.1855,0.1885,0.1864,0.1886,0.1914,0.1977,0.2048,0.1937,0.2123,0.2131,0.2242,0.2363,0.2312,0.2577,0.2302,0.2305,0.2307,0,0.1565,0.1611,0.1678,0.1733,0.1747,0.1774,0.1815,0.1842,0.1877,0.189,0.1917,0.1928,0.1998,0.1953,0.2102,0.2038,0.2113,0.2157,0.2169,0.2274,0.229,0.2482,0.262,0.25,0.2336,0.2334,0.2331,0,0.1567,0.1639,0.1693,0.1717,0.178,0.1797,0.1819,0.1853,0.1888,0.1926,0.197,0.2018,0.2091,0.2146,0.2265,0.2189,0.2443,0.2355,0.2554,0.2568,0.2551,0.256,0.2588,0.2456,0.2455,0.2454,0.2453,0,0.1592,0.1632,0.1696,0.1729,0.177,0.1804,0.1841,0.1865,0.1923,0.1982,0.1997,0.2086,0.2135,0.2281,0.2331,0.256,0.2523,0.2602,0.2652,0.2575,0.2582,0.2494,0.2405,0.2466,0.2463,0.2461,0.2459,0,0.159,0.1641,0.17,0.1763,0.1778,0.1805,0.1867,0.1905,0.1955,0.2043,0.2072,0.2199,0.2404,0.2507,0.2666,0.2711,0.2806,0.294,0.2899,0.2938,0.2968,0.2885,0.2929,0.2845,0.3201,0.3206,0.321,0,0.1604,0.1637,0.1713,0.1753,0.1782,0.1824,0.1863,0.1913,0.1969,0.2126,0.219,0.2413,0.2592,0.2933,0.3035,0.3234,0.3038,0.3296,0.311,0.3014,0.2956,0.2789,0.2697,0.314,0.3143,0.3146,0.3148,0,0.1632,0.1656,0.1718,0.1796,0.1845,0.1884,0.1946,0.1993,0.2075,0.2192,0.2403,0.2568,0.289,0.309,0.3353,0.3431,0.3134,0.3361,0.3229,0.2908,0.2755,0.2683,0.2953,0.3172,0.3169,0.3168,0.3166,0.3165,0.1672,0.1715,0.1813,0.1869,0.1922,0.1977,0.1999,0.2087,0.2214,0.2361,0.2523,0.2744,0.3003,0.3371,0.3454,0.3494,0.3367,0.3374,0.3297,0.315,0.2996,0.3383,0.3661,0.3662,0.3662,0.3662,0.3663,0,0.1784,0.1834,0.1887,0.1978,0.2024,0.2031,0.2091,0.2111,0.2251,0.2405,0.2591,0.2885,0.3121,0.3285,0.3453,0.3399,0.3199,0.3291,0.2955,0.2874,0.3212,0.313,0.3341,0.3342,0.3342,0.3342,0.3342,0.3342,0.1888,0.1973,0.1983,0.208,0.2108,0.2143,0.2161,0.2193,0.2271,0.2444,0.2584,0.272,0.2972,0.3209,0.3245,0.319,0.2889,0.285,0.2755,0.2893,0.2889,0.2884,0.2783,0.2919,0.2919,0.2307,0.2302,0.2299]},{"header":{"parameterUnit":"m.s-1","parameterCategory":2,"la1":30.2991,"la2":30.254,"lo1":-89.0895,"lo2":-89.0444,"dy":0.0017,"dx":0.0017,"nx":28,"ny":28,"refTime":"2024-03-19T09:00:00:Z","depth":"0","parameterNumber":3,"parameterNumberName":"V-component_of_CURRENTS"},"data":[0,0,0,0,0,0,0,0,0,0,0,0,0,0,0,0,0,0,0,0,0,0,0,0,0,0,0,0,0,0,0,0,0,0,0,0,0,0,0,0,0,0,0,0,0,0,0,0,0,0,0,0,0,0,0,0,0,0,-0.0301,-0.0302,0,-0.04,-0.0402,-0.0403,-0.0446,-0.0445,-0.0445,-0.0445,-0.0595,-0.0599,-0.0603,0,0,0,0,0,0,0,0,0,0,0,0,0,-0.0227,-0.0228,-0.03,-0.0302,-0.0303,-0.04,-0.0402,-0.0403,-0.0446,-0.0445,-0.0445,-0.0445,-0.0593,-0.0599,-0.0604,0,0,0,0,0,0,0,0,0,0,0,0,0,-0.0287,-0.0228,-0.03,-0.0334,-0.0338,-0.04,-0.0402,-0.0404,-0.0446,-0.0445,-0.0445,-0.0444,-0.0592,-0.0598,-0.0604,-0.0654,0,0,-0.0624,-0.0627,0,0,0,0,0,0,0,0,-0.0284,-0.029,-0.0328,-0.0332,-0.0337,-0.0409,-0.0431,-0.0489,-0.0446,-0.0407,-0.0445,-0.0444,-0.0537,-0.0548,-0.0569,-0.0661,-0.0667,-0.0625,-0.0629,-0.0631,-0.0633,0,0,0,0,0,0,0,-0.0279,-0.0287,-0.0342,-0.033,-0.0335,-0.0372,-0.038,-0.0442,-0.0475,-0.041,-0.0413,-0.0422,-0.0539,-0.0563,-0.0573,-0.0669,-0.0624,-0.063,-0.0634,-0.0637,-0.086,-0.0862,0,0,0,0,0,0,-0.026,-0.0282,-0.0338,-0.0345,-0.0307,-0.0373,-0.0382,-0.0387,-0.0474,-0.0485,-0.0422,-0.0423,-0.0552,-0.0565,-0.0578,-0.0672,-0.0631,-0.0637,-0.0641,-0.0858,-0.086,-0.0862,0,0,0,0,0,0,-0.0258,-0.0264,-0.0334,-0.0315,-0.0326,-0.0374,-0.0381,-0.039,-0.0413,-0.0482,-0.0495,-0.0436,-0.0552,-0.0569,-0.0649,-0.0677,-0.064,-0.0646,-0.0855,-0.0858,-0.0861,-0.084,0,0,0,0,0,0,-0.0256,-0.0263,-0.0262,-0.0313,-0.0326,-0.0373,-0.0381,-0.0392,-0.0418,-0.0421,-0.0499,-0.0512,-0.0553,-0.0639,-0.0656,-0.0685,-0.0651,-0.0853,-0.0857,-0.086,-0.0839,-0.0842,-0.0846,0,0,0,0,0,-0.0253,-0.0252,-0.0261,-0.0268,-0.0323,-0.0373,-0.0384,-0.0418,-0.0419,-0.0436,-0.0495,-0.0509,-0.0675,-0.0646,-0.0665,-0.0697,-0.0851,-0.0855,-0.086,-0.0837,-0.0842,-0.0846,0,0,0,0,0,0,-0.0216,-0.0258,-0.0269,-0.0279,-0.0323,-0.038,-0.0395,-0.0418,-0.0476,-0.0479,-0.0537,-0.0556,-0.0637,-0.0675,-0.0641,-0.0775,-0.0765,-0.0774,-0.0742,-0.0747,-0.075,-0.0683,-0.0656,0,0,0,0,0,-0.0207,-0.0219,-0.0268,-0.0277,-0.0296,-0.0345,-0.0368,-0.0395,-0.045,-0.0473,-0.0531,-0.0599,-0.0672,-0.0712,-0.0779,-0.0853,-0.0827,-0.0887,-0.0891,-0.0893,-0.0854,-0.0857,-0.0856,-0.0877,-0.0877,-0.0877,0,0,-0.0193,-0.0219,-0.0224,-0.0271,-0.0305,-0.0346,-0.0359,-0.0395,-0.0433,-0.0483,-0.0554,-0.0614,-0.0695,-0.0778,-0.0818,-0.0812,-0.0875,-0.0899,-0.0901,-0.0858,-0.0862,-0.0859,-0.0856,-0.0881,-0.088,-0.088,0,0,-0.0184,-0.0197,-0.0211,-0.025,-0.0302,-0.034,-0.0348,-0.0412,-0.0441,-0.0518,-0.0566,-0.063,-0.0748,-0.0803,-0.0848,-0.0912,-0.0892,-0.095,-0.0915,-0.0921,-0.0917,-0.0913,-0.0864,-0.0856,-0.0953,-0.0953,-0.0953,0,-0.0165,-0.0193,-0.0224,-0.0259,-0.0288,-0.0336,-0.0368,-0.0414,-0.0498,-0.0515,-0.0538,-0.0677,-0.0753,-0.0831,-0.0861,-0.0915,-0.0891,-0.0889,-0.0919,-0.0915,-0.0911,-0.0862,-0.0854,-0.0952,-0.0953,-0.0953,-0.0953,0,-0.018,-0.0205,-0.0218,-0.0277,-0.0314,-0.0349,-0.0413,-0.0449,-0.0488,-0.0527,-0.0597,-0.0688,-0.0754,-0.0813,-0.0861,-0.0893,-0.0873,-0.0917,-0.089,-0.0907,-0.0855,-0.0847,-0.0952,-0.0952,-0.0952,-0.0952,0,0,-0.0128,-0.0211,-0.0216,-0.0241,-0.0325,-0.0351,-0.041,-0.0465,-0.0467,-0.0555,-0.0556,-0.0701,-0.0709,-0.0758,-0.0825,-0.0841,-0.0817,-0.0862,-0.0863,-0.078,-0.0775,-0.0691,-0.0674,-0.0862,-0.0861,-0.0861,-0.0742,0,-0.013,-0.0185,-0.0232,-0.0282,-0.0315,-0.0369,-0.0408,-0.0459,-0.0496,-0.051,-0.0582,-0.0616,-0.0704,-0.0714,-0.0753,-0.079,-0.0795,-0.0841,-0.0799,-0.0795,-0.0693,-0.0662,-0.0648,-0.0535,-0.0733,-0.0732,-0.0731,0,-0.0133,-0.017,-0.0216,-0.027,-0.0283,-0.0314,-0.0345,-0.0384,-0.0419,-0.0435,-0.0469,-0.0507,-0.0544,-0.0611,-0.0651,-0.067,-0.0712,-0.0742,-0.074,-0.065,-0.0695,-0.0558,-0.0511,-0.073,-0.0717,-0.0718,-0.0719,0,-0.0082,-0.0153,-0.0182,-0.0208,-0.028,-0.0286,-0.0312,-0.0351,-0.0334,-0.0355,-0.0308,-0.0389,-0.0361,-0.0448,-0.0508,-0.0576,-0.0508,-0.0622,-0.0579,-0.0573,-0.0541,-0.0533,-0.0667,-0.0638,-0.0638,-0.0638,-0.0639,0,-0.0068,-0.0087,-0.0151,-0.0167,-0.0161,-0.0227,-0.0201,-0.0228,-0.0212,-0.0138,-0.024,-0.0155,-0.0313,-0.0302,-0.0422,-0.0419,-0.044,-0.0524,-0.053,-0.0535,-0.0528,-0.0702,-0.0819,-0.0634,-0.0635,-0.0636,-0.0636,0,-0.0008,-0.0062,-0.0083,-0.0136,-0.0138,-0.0125,-0.0105,-0.0061,-0.0064,0.0047,0.0067,0.0064,0.0103,-0.0028,-0.011,-0.0246,-0.0379,-0.031,-0.0265,-0.0268,-0.0468,-0.0582,-0.059,-0.0663,-0.0254,-0.0251,-0.0249,0,0.0019,0.0008,-0.0028,-0.0002,-0.0017,-0.0001,0.0041,0.0022,0.0093,0.0213,0.0306,0.0376,0.0481,0.0412,0.0185,0.0044,-0.0196,-0.0078,-0.0234,-0.0427,-0.0562,-0.0639,-0.0708,-0.0187,-0.0184,-0.0182,-0.018,0,0.0094,0.0081,0.0079,0.0124,0.0167,0.0214,0.0273,0.0352,0.0393,0.0524,0.0742,0.085,0.0794,0.0697,0.0474,0.0311,-0.0207,-0.0034,-0.0275,-0.0522,-0.0572,-0.0662,-0.0291,-0.016,-0.0162,-0.0164,-0.0165,-0.0165,0.019,0.0223,0.0242,0.0289,0.0346,0.0462,0.0542,0.0651,0.0829,0.1056,0.1102,0.1306,0.1053,0.078,0.0531,0.0011,-0.0008,-0.0206,-0.032,-0.0373,-0.0472,-0.0005,0.0132,0.0132,0.0132,0.0132,0.0131,0,0.0339,0.0371,0.0419,0.0503,0.0605,0.0585,0.0734,0.0845,0.1107,0.1323,0.1532,0.1538,0.1219,0.0776,0.0119,-0.0255,-0.0442,-0.048,-0.0669,-0.0726,-0.035,-0.0384,-0.0303,-0.0303,-0.0302,-0.0302,-0.0302,-0.0302,0.0444,0.0528,0.0537,0.0733,0.0794,0.095,0.1043,0.1224,0.1381,0.1689,0.1819,0.1892,0.1516,0.0357,-0.0508,-0.0705,-0.1012,-0.0985,-0.1147,-0.1014,-0.1002,-0.099,-0.1056,-0.1116,-0.1117,-0.1502,-0.1507,-0.151]}],[{"header":{"parameterUnit":"m.s-1","parameterCategory":2,"la1":30.2991,"la2":30.254,"lo1":-89.0895,"lo2":-89.0444,"dy":0.0017,"dx":0.0017,"nx":28,"ny":28,"refTime":"2024-03-19T09:00:00:Z","depth":"2","parameterNumber":2,"parameterNumberName":"U-component_of_CURRENTS"},"data":[0,0,0,0,0,0,0,0,0,0,0,0,0,0,0,0,0,0,0,0,0,0,0,0,0,0,0,0,0,0,0,0,0,0,0,0,0,0,0,0,0,0,0,0,0,0,0,0,0,0,0,0,0,0,0,0,0,0,0.1407,0.1407,0,0.1445,0.1446,0.1446,0.1445,0.1444,0.1444,0.1444,0.1381,0.138,0.1379,0,0,0,0,0,0,0,0,0,0,0,0,0,0.1334,0.1335,0.1407,0.1407,0.1408,0.1445,0.1446,0.1446,0.1445,0.1444,0.1444,0.1444,0.1382,0.138,0.1379,0,0,0,0,0,0,0,0,0,0,0,0,0,0.1367,0.1336,0.1406,0.1413,0.1414,0.1445,0.1446,0.1446,0.1445,0.1444,0.1444,0.1443,0.1382,0.138,0.1378,0.1377,0,0,0.1372,0.1371,0,0,0,0,0,0,0,0,0.1365,0.1369,0.1412,0.1413,0.1414,0.1441,0.1397,0.1419,0.1445,0.1431,0.1444,0.1443,0.1394,0.1391,0.1398,0.1374,0.1371,0.1372,0.1371,0.137,0.1369,0,0,0,0,0,0,0,0.1362,0.1367,0.142,0.1412,0.1414,0.1415,0.1419,0.1402,0.1412,0.1432,0.1433,0.1441,0.1393,0.14,0.1396,0.137,0.1372,0.137,0.1369,0.1368,0.1333,0.1333,0,0,0,0,0,0,0.1362,0.1365,0.1419,0.1421,0.139,0.1417,0.1421,0.1432,0.1414,0.1412,0.1441,0.144,0.1404,0.1398,0.1394,0.1398,0.137,0.1368,0.1367,0.1333,0.1333,0.1334,0,0,0,0,0,0,0.1361,0.1367,0.1417,0.1395,0.1402,0.1419,0.1431,0.1433,0.1445,0.1422,0.1418,0.1452,0.1403,0.1397,0.139,0.1395,0.1367,0.1365,0.1333,0.1333,0.1333,0.1401,0,0,0,0,0,0,0.1358,0.1366,0.1375,0.1396,0.1404,0.1444,0.1431,0.1434,0.1451,0.1451,0.1429,0.1423,0.1402,0.1393,0.1388,0.1392,0.1364,0.1332,0.1333,0.1333,0.1398,0.1403,0.1408,0,0,0,0,0,0.1356,0.1371,0.1375,0.1382,0.1415,0.1445,0.1449,0.1457,0.1452,0.1464,0.1451,0.1424,0.1392,0.1392,0.1386,0.1389,0.1332,0.1333,0.1333,0.1396,0.1402,0.1408,0,0,0,0,0,0,0.1345,0.1373,0.1378,0.1401,0.1425,0.1445,0.146,0.1464,0.1466,0.1463,0.1435,0.1428,0.1421,0.1397,0.1398,0.1379,0.1354,0.1353,0.1404,0.1409,0.1414,0.1413,0.1362,0,0,0,0,0,0.1347,0.1365,0.1393,0.1412,0.1426,0.1444,0.1458,0.1466,0.1471,0.1473,0.1458,0.1436,0.1418,0.1409,0.139,0.1385,0.1405,0.1379,0.1384,0.1389,0.1382,0.1411,0.1419,0.1335,0.1335,0.1335,0,0,0.1346,0.1367,0.1376,0.1411,0.143,0.1451,0.1451,0.1479,0.1489,0.1463,0.1468,0.1454,0.1421,0.1417,0.141,0.1398,0.1437,0.1389,0.1394,0.1384,0.1412,0.1421,0.1428,0.1336,0.1336,0.1336,0,0,0.1361,0.1377,0.1399,0.1419,0.1454,0.1464,0.1474,0.15,0.1505,0.1514,0.1494,0.1488,0.1463,0.1446,0.1431,0.1448,0.1461,0.1439,0.1464,0.1493,0.15,0.1507,0.161,0.1625,0.1442,0.1442,0.1442,0,0.1358,0.139,0.1411,0.1438,0.145,0.147,0.1491,0.1503,0.152,0.1522,0.1519,0.1495,0.1473,0.1461,0.147,0.1459,0.1505,0.1449,0.1502,0.1508,0.1513,0.1617,0.1632,0.1446,0.1445,0.1445,0.1444,0,0.139,0.1413,0.1429,0.1463,0.148,0.1504,0.1522,0.1536,0.1541,0.1547,0.1547,0.1532,0.1517,0.151,0.1496,0.1517,0.1553,0.1509,0.1493,0.1526,0.1633,0.1649,0.145,0.1449,0.1448,0.1447,0,0,0.1386,0.144,0.1445,0.1458,0.1493,0.1508,0.1527,0.1546,0.1557,0.1567,0.1584,0.1558,0.1561,0.1544,0.1532,0.1552,0.1658,0.1555,0.1555,0.1671,0.1793,0.1824,0.1845,0.163,0.1632,0.1633,0.1878,0,0.1403,0.1449,0.147,0.1497,0.1517,0.1531,0.1545,0.1561,0.1575,0.1599,0.159,0.1606,0.1571,0.1587,0.1597,0.1638,0.169,0.1599,0.173,0.1736,0.1768,0.1858,0.1621,0.1818,0.1893,0.1895,0.1897,0,0.1428,0.1451,0.1486,0.151,0.152,0.1535,0.1555,0.1574,0.1605,0.1622,0.1635,0.1647,0.169,0.1652,0.1748,0.17,0.1753,0.1784,0.1793,0.1797,0.1792,0.1781,0.1843,0.1923,0.1921,0.1919,0.1917,0,0.1416,0.1459,0.1483,0.1492,0.1525,0.1535,0.1553,0.1579,0.1609,0.1657,0.1706,0.1726,0.179,0.1818,0.1896,0.1838,0.2026,0.1949,0.2034,0.2041,0.1849,0.1835,0.2018,0.2018,0.2017,0.2017,0.2016,0,0.1423,0.1441,0.1479,0.1489,0.1513,0.1532,0.1566,0.1589,0.1643,0.1699,0.1727,0.1798,0.1834,0.1939,0.196,0.2084,0.2089,0.2073,0.2099,0.1874,0.186,0.1925,0.1911,0.2026,0.2024,0.2022,0.202,0,0.1414,0.1444,0.1467,0.1498,0.1514,0.153,0.1593,0.1622,0.1681,0.1767,0.1805,0.1911,0.2059,0.2121,0.2228,0.221,0.2289,0.2326,0.2109,0.2104,0.2277,0.2263,0.2448,0.2451,0.2453,0.2455,0.2457,0,0.1421,0.1431,0.1472,0.1497,0.1516,0.1552,0.1587,0.1638,0.1685,0.1837,0.189,0.2073,0.2173,0.2377,0.2364,0.2453,0.2451,0.2313,0.212,0.2311,0.2318,0.23,0.2284,0.193,0.1927,0.1925,0.1923,0,0.1412,0.1426,0.1441,0.149,0.1528,0.1571,0.1627,0.1669,0.1752,0.185,0.2003,0.2102,0.2279,0.2257,0.2378,0.2371,0.2266,0.2275,0.2527,0.1854,0.184,0.1841,0.1838,0.1903,0.1905,0.1907,0.1908,0.1909,0.1397,0.1406,0.1427,0.1466,0.1518,0.1561,0.1568,0.1653,0.1732,0.1803,0.196,0.2029,0.208,0.2129,0.2129,0.2128,0.2255,0.2127,0.2125,0.2128,0.202,0.201,0.2092,0.2094,0.2097,0.2099,0.2101,0,0.1348,0.1372,0.1407,0.1432,0.145,0.151,0.1568,0.1547,0.1614,0.1713,0.1791,0.1688,0.1719,0.1811,0.1757,0.1801,0.1688,0.1758,0.1554,0.1577,0.1596,0.1451,0.1377,0.1375,0.1374,0.1372,0,0,0.1317,0.1317,0.1327,0.1329,0.1372,0.1355,0.137,0.1382,0.1418,0.1415,0.1437,0.153,0.1703,0.1472,0.1477,0.1422,0.1472,0.1373,0.1949,0.1726,0.1742,0.1811,0.1616,0,0,0,0,0]},{"header":{"parameterUnit":"m.s-1","parameterCategory":2,"la1":30.2991,"la2":30.254,"lo1":-89.0895,"lo2":-89.0444,"dy":0.0017,"dx":0.0017,"nx":28,"ny":28,"refTime":"2024-03-19T09:00:00:Z","depth":"2","parameterNumber":3,"parameterNumberName":"V-component_of_CURRENTS"},"data":[0,0,0,0,0,0,0,0,0,0,0,0,0,0,0,0,0,0,0,0,0,0,0,0,0,0,0,0,0,0,0,0,0,0,0,0,0,0,0,0,0,0,0,0,0,0,0,0,0,0,0,0,0,0,0,0,0,0,-0.0339,-0.034,0,-0.0439,-0.044,-0.0442,-0.0485,-0.0485,-0.0485,-0.0484,-0.0556,-0.0558,-0.056,0,0,0,0,0,0,0,0,0,0,0,0,0,-0.0258,-0.0259,-0.0339,-0.034,-0.0341,-0.0439,-0.044,-0.0442,-0.0485,-0.0485,-0.0485,-0.0484,-0.0555,-0.0558,-0.056,0,0,0,0,0,0,0,0,0,0,0,0,0,-0.032,-0.0259,-0.0339,-0.0374,-0.0378,-0.0439,-0.044,-0.0442,-0.0485,-0.0485,-0.0484,-0.0484,-0.0554,-0.0557,-0.0561,-0.0589,0,0,-0.057,-0.0572,0,0,0,0,0,0,0,0,-0.0316,-0.0323,-0.0368,-0.0371,-0.0376,-0.0448,-0.0438,-0.0489,-0.0485,-0.0446,-0.0484,-0.0484,-0.0517,-0.0523,-0.0545,-0.0592,-0.0595,-0.0571,-0.0573,-0.0574,-0.0575,0,0,0,0,0,0,0,-0.0312,-0.0319,-0.038,-0.0369,-0.0374,-0.0409,-0.0417,-0.0448,-0.0483,-0.0449,-0.0452,-0.0462,-0.0519,-0.0542,-0.0547,-0.0596,-0.0571,-0.0574,-0.0576,-0.0577,-0.0679,-0.068,0,0,0,0,0,0,-0.0294,-0.0315,-0.0377,-0.0383,-0.0343,-0.041,-0.0419,-0.0426,-0.0483,-0.0491,-0.0462,-0.0463,-0.0536,-0.0543,-0.0549,-0.0601,-0.0574,-0.0577,-0.0579,-0.0678,-0.0679,-0.068,0,0,0,0,0,0,-0.0291,-0.0298,-0.0373,-0.035,-0.0362,-0.0412,-0.042,-0.0429,-0.0453,-0.0493,-0.05,-0.0477,-0.0536,-0.0545,-0.0594,-0.0603,-0.0579,-0.0581,-0.0678,-0.0679,-0.068,-0.0693,0,0,0,0,0,0,-0.0289,-0.0297,-0.0298,-0.0349,-0.0363,-0.0412,-0.042,-0.0431,-0.0459,-0.0462,-0.0508,-0.0514,-0.0537,-0.0589,-0.0597,-0.0607,-0.0584,-0.0677,-0.0678,-0.0679,-0.0692,-0.0695,-0.0697,0,0,0,0,0,-0.0285,-0.0288,-0.0297,-0.0305,-0.0362,-0.0413,-0.0424,-0.0459,-0.0459,-0.0477,-0.0515,-0.0513,-0.0603,-0.0593,-0.0602,-0.0613,-0.0676,-0.0678,-0.0679,-0.0691,-0.0694,-0.0697,0,0,0,0,0,0,-0.0252,-0.0294,-0.0305,-0.032,-0.0364,-0.042,-0.0437,-0.0459,-0.0503,-0.0503,-0.0535,-0.0546,-0.0588,-0.0601,-0.0589,-0.0646,-0.0634,-0.0638,-0.064,-0.0643,-0.0646,-0.0615,-0.0587,0,0,0,0,0,-0.0244,-0.0257,-0.0307,-0.0319,-0.0338,-0.0387,-0.041,-0.0437,-0.0481,-0.05,-0.0537,-0.057,-0.0603,-0.0623,-0.0656,-0.0694,-0.0687,-0.0703,-0.0706,-0.0708,-0.0689,-0.0713,-0.0715,-0.0686,-0.0686,-0.0686,0,0,-0.0232,-0.0258,-0.0264,-0.0313,-0.0347,-0.0378,-0.0401,-0.0438,-0.0463,-0.05,-0.0546,-0.0583,-0.0616,-0.0661,-0.0679,-0.0673,-0.0711,-0.071,-0.0712,-0.0691,-0.0715,-0.0717,-0.072,-0.0687,-0.0687,-0.0687,0,0,-0.0225,-0.024,-0.0256,-0.0289,-0.0341,-0.0372,-0.038,-0.0443,-0.0469,-0.0526,-0.0551,-0.0593,-0.0655,-0.0679,-0.0697,-0.0731,-0.0725,-0.0743,-0.0735,-0.0759,-0.0761,-0.0763,-0.0748,-0.0748,-0.0745,-0.0745,-0.0745,0,-0.0207,-0.0233,-0.0269,-0.0297,-0.0315,-0.0364,-0.0385,-0.0424,-0.0497,-0.0514,-0.0538,-0.0621,-0.0658,-0.069,-0.0713,-0.0735,-0.0738,-0.0722,-0.0761,-0.0763,-0.0765,-0.0749,-0.0749,-0.0745,-0.0745,-0.0745,-0.0745,0,-0.0221,-0.0239,-0.025,-0.0294,-0.0322,-0.0348,-0.0399,-0.0433,-0.047,-0.0508,-0.0559,-0.0621,-0.0662,-0.0689,-0.0719,-0.0747,-0.0741,-0.0762,-0.075,-0.0768,-0.0751,-0.0751,-0.0747,-0.0746,-0.0746,-0.0746,0,0,-0.0178,-0.0245,-0.0247,-0.0261,-0.0318,-0.034,-0.0375,-0.0419,-0.0428,-0.0508,-0.0521,-0.0608,-0.0636,-0.0657,-0.0698,-0.0729,-0.0757,-0.0756,-0.0757,-0.0733,-0.0786,-0.0787,-0.0787,-0.0797,-0.0797,-0.0797,-0.0765,0,-0.0175,-0.0211,-0.0247,-0.027,-0.0288,-0.0331,-0.0354,-0.0397,-0.0438,-0.0468,-0.0526,-0.0557,-0.0624,-0.0641,-0.069,-0.073,-0.0759,-0.0761,-0.0777,-0.0776,-0.077,-0.0789,-0.0727,-0.0695,-0.0765,-0.0765,-0.0765,0,-0.0174,-0.0195,-0.022,-0.0249,-0.0258,-0.0279,-0.0302,-0.0331,-0.0378,-0.0407,-0.0452,-0.0493,-0.0539,-0.0598,-0.0673,-0.0675,-0.0732,-0.0769,-0.0769,-0.0761,-0.0778,-0.0691,-0.0693,-0.0765,-0.0765,-0.0765,-0.0765,0,-0.0124,-0.0169,-0.0181,-0.0195,-0.0242,-0.0253,-0.0272,-0.0313,-0.0311,-0.0355,-0.034,-0.0425,-0.0427,-0.0529,-0.0615,-0.065,-0.0682,-0.0735,-0.0783,-0.0782,-0.0724,-0.0718,-0.0793,-0.0793,-0.0794,-0.0794,-0.0794,0,-0.01,-0.0107,-0.016,-0.0166,-0.0161,-0.021,-0.0201,-0.0231,-0.0242,-0.0207,-0.0297,-0.0269,-0.0414,-0.0453,-0.0572,-0.0656,-0.0648,-0.0769,-0.078,-0.0727,-0.0722,-0.0781,-0.078,-0.0792,-0.0793,-0.0793,-0.0793,0,-0.005,-0.009,-0.0099,-0.0139,-0.0143,-0.0139,-0.0136,-0.012,-0.0139,-0.0086,-0.0083,-0.0131,-0.0187,-0.0317,-0.0444,-0.0562,-0.0665,-0.0701,-0.0609,-0.0612,-0.076,-0.076,-0.0757,-0.0757,-0.0757,-0.0757,-0.0757,0,-0.0031,-0.0036,-0.0061,-0.0051,-0.0069,-0.0065,-0.0046,-0.0067,-0.0032,0.0012,0.0059,0.0028,0.002,-0.0154,-0.0357,-0.0535,-0.061,-0.0618,-0.0697,-0.0748,-0.0759,-0.0759,-0.0759,-0.0612,-0.0611,-0.061,-0.0609,0,0.0012,-0.0002,-0.0005,0.0013,0.0029,0.0063,0.0089,0.0139,0.015,0.0215,0.0297,0.0301,0.0146,-0.0015,-0.0274,-0.0407,-0.0595,-0.0606,-0.0669,-0.0645,-0.0613,-0.0623,-0.0628,-0.06,-0.0601,-0.0601,-0.0602,-0.0602,0.0048,0.0062,0.0054,0.0079,0.0112,0.0179,0.024,0.03,0.039,0.0501,0.048,0.0507,0.0288,-0.0019,-0.0234,-0.048,-0.052,-0.0626,-0.0628,-0.0631,-0.0634,-0.0606,-0.0589,-0.059,-0.0591,-0.0591,-0.0592,0,0.0075,0.0088,0.0122,0.0149,0.0216,0.022,0.0327,0.0425,0.0568,0.0639,0.0711,0.0548,0.0353,0.0093,-0.0246,-0.0475,-0.0492,-0.0552,-0.0527,-0.0534,-0.054,-0.0539,-0.0469,-0.0469,-0.0469,-0.047,0,0,0.0082,0.0113,0.0131,0.0226,0.0273,0.0398,0.0483,0.0644,0.0734,0.0823,0.0824,0.0776,0.0447,0.0221,-0.0076,-0.0266,-0.0347,-0.03,-0.0373,-0.0313,-0.0317,-0.0558,-0.0561,0,0,0,0,0]}],[{"header":{"parameterUnit":"m.s-1","parameterCategory":2,"la1":30.2991,"la2":30.254,"lo1":-89.0895,"lo2":-89.0444,"dy":0.0017,"dx":0.0017,"nx":28,"ny":28,"refTime":"2024-03-19T09:00:00:Z","depth":"4","parameterNumber":2,"parameterNumberName":"U-component_of_CURRENTS"},"data":[0,0,0,0,0,0,0,0,0,0,0,0,0,0,0,0,0,0,0,0,0,0,0,0,0,0,0,0,0,0,0,0,0,0,0,0,0,0,0,0,0,0,0,0,0,0,0,0,0,0,0,0,0,0,0,0,0,0,0.056,0.0561,0,0.0579,0.0579,0.0579,0.0605,0.0606,0.0606,0.0607,0.0607,0.0606,0.0605,0,0,0,0,0,0,0,0,0,0,0,0,0,0.0492,0.0493,0.056,0.0561,0.0561,0.0579,0.0579,0.0579,0.0605,0.0606,0.0607,0.0607,0.0607,0.0606,0.0605,0,0,0,0,0,0,0,0,0,0,0,0,0,0.0515,0.0494,0.056,0.0578,0.058,0.0579,0.0579,0.0579,0.0605,0.0606,0.0607,0.0608,0.0607,0.0606,0.0605,0.0579,0,0,0.0602,0.0602,0,0,0,0,0,0,0,0,0.0514,0.0517,0.0575,0.0577,0.0579,0.0593,0.0554,0.0579,0.0605,0.0593,0.0607,0.0608,0.0601,0.0601,0.0599,0.0579,0.0579,0.0602,0.0601,0.0601,0.0601,0,0,0,0,0,0,0,0.0512,0.0516,0.0565,0.0576,0.0578,0.0566,0.0571,0.0559,0.0589,0.0594,0.0597,0.0602,0.0602,0.0599,0.0599,0.0579,0.0602,0.0601,0.0601,0.06,0.0643,0.0645,0,0,0,0,0,0,0.0517,0.0515,0.0565,0.0566,0.0551,0.0567,0.0572,0.0585,0.0589,0.0592,0.0601,0.0603,0.0601,0.06,0.0599,0.0652,0.0601,0.06,0.06,0.0642,0.0644,0.0646,0,0,0,0,0,0,0.0515,0.0521,0.0564,0.0542,0.0547,0.0568,0.0582,0.0585,0.0604,0.0596,0.0597,0.0619,0.0601,0.06,0.0618,0.0649,0.06,0.0599,0.064,0.0642,0.0645,0.0705,0,0,0,0,0,0,0.0513,0.0521,0.0535,0.0543,0.0549,0.0574,0.0581,0.0585,0.0605,0.0609,0.0611,0.0611,0.0602,0.062,0.0617,0.0647,0.0598,0.0638,0.0641,0.0644,0.0701,0.0709,0.0717,0,0,0,0,0,0.0511,0.0523,0.0536,0.0542,0.0568,0.0574,0.0576,0.0591,0.0605,0.0612,0.0627,0.0612,0.0639,0.062,0.0617,0.0647,0.0636,0.064,0.0644,0.0697,0.0708,0.0716,0,0,0,0,0,0,0.0497,0.0527,0.0542,0.0563,0.0575,0.058,0.0589,0.0601,0.0616,0.0627,0.0623,0.0623,0.0653,0.0642,0.0621,0.0672,0.0639,0.0642,0.0681,0.069,0.0698,0.0733,0.0597,0,0,0,0,0,0.0503,0.0522,0.0543,0.0559,0.0569,0.0583,0.0591,0.0603,0.0615,0.0624,0.063,0.0644,0.0661,0.067,0.0673,0.0691,0.0709,0.0714,0.0722,0.0729,0.0757,0.0826,0.0843,0.0659,0.0658,0.0658,0,0,0.0501,0.052,0.0532,0.0558,0.057,0.0585,0.059,0.0607,0.0626,0.0619,0.0651,0.0665,0.0672,0.0702,0.0715,0.07,0.0785,0.0734,0.0739,0.0765,0.0832,0.085,0.0866,0.0661,0.0661,0.066,0,0,0.0497,0.0528,0.0541,0.0556,0.058,0.0592,0.0602,0.0622,0.0642,0.0671,0.0682,0.0724,0.0732,0.0758,0.077,0.0822,0.0822,0.0822,0.0892,0.0958,0.0974,0.0989,0.1008,0.1024,0.083,0.083,0.083,0,0.0498,0.0517,0.0542,0.0557,0.0572,0.0599,0.0613,0.0634,0.066,0.0686,0.0691,0.0766,0.0766,0.0828,0.0861,0.0841,0.087,0.0851,0.097,0.0985,0.0999,0.1015,0.1032,0.0833,0.0833,0.0832,0.0832,0,0.0497,0.052,0.0527,0.0562,0.0581,0.0596,0.0632,0.0661,0.0696,0.0727,0.0802,0.083,0.0886,0.0892,0.0898,0.0999,0.0983,0.0968,0.0946,0.1021,0.1033,0.105,0.0838,0.0837,0.0836,0.0835,0,0,0.0482,0.0521,0.0524,0.0541,0.0587,0.0598,0.0645,0.0694,0.0742,0.0797,0.0868,0.0934,0.0982,0.1003,0.1022,0.109,0.12,0.1089,0.1091,0.1109,0.1333,0.1188,0.1191,0.1219,0.1222,0.1225,0.1292,0,0.0475,0.0491,0.052,0.0547,0.0562,0.0611,0.0655,0.071,0.077,0.0845,0.092,0.1,0.1013,0.1069,0.1141,0.1184,0.1253,0.1182,0.1259,0.126,0.1123,0.1209,0.1238,0.1304,0.1308,0.131,0.1312,0,0.0463,0.0479,0.0497,0.0548,0.0562,0.0594,0.0678,0.0725,0.0839,0.0897,0.1009,0.1071,0.1194,0.1195,0.1336,0.1298,0.1342,0.1369,0.1372,0.1235,0.1147,0.1221,0.1342,0.134,0.1337,0.1335,0.1334,0,0.0423,0.0463,0.0475,0.049,0.0556,0.0592,0.0646,0.0749,0.081,0.096,0.1034,0.1167,0.1254,0.1348,0.1397,0.1403,0.1516,0.1515,0.1422,0.1409,0.1491,0.1475,0.1638,0.1638,0.1638,0.1637,0.1637,0,0.0398,0.041,0.0463,0.0471,0.0514,0.0581,0.0654,0.0733,0.0864,0.0946,0.1081,0.1158,0.1313,0.1378,0.1425,0.1447,0.1538,0.146,0.1436,0.1508,0.1494,0.15,0.1484,0.164,0.1639,0.1639,0.1638,0,0.0349,0.0379,0.0397,0.0464,0.0494,0.0533,0.0653,0.0708,0.0853,0.097,0.1036,0.1191,0.1287,0.1364,0.1485,0.1464,0.1501,0.1481,0.1519,0.149,0.1353,0.1339,0.1437,0.1433,0.1429,0.1426,0.1424,0,0.0325,0.0324,0.0379,0.0399,0.0434,0.0505,0.0555,0.0694,0.0765,0.0959,0.1008,0.1153,0.1237,0.1275,0.1361,0.1422,0.1415,0.1421,0.1449,0.1376,0.1343,0.1334,0.1324,0.1418,0.1417,0.1416,0.1415,0,0.0273,0.0289,0.0302,0.0345,0.039,0.0436,0.053,0.0579,0.0744,0.087,0.0981,0.1062,0.1142,0.1217,0.1247,0.1288,0.1417,0.1385,0.1395,0.1422,0.1354,0.1322,0.1318,0.1403,0.1405,0.1406,0.1407,0,0.0234,0.0226,0.0245,0.0286,0.033,0.0371,0.0424,0.0518,0.0609,0.0842,0.0848,0.0992,0.1107,0.1143,0.1161,0.1191,0.1227,0.1223,0.1242,0.1256,0.1167,0.1051,0.1013,0,0,0,0,0,0.0196,0.0179,0.0194,0.0231,0.0273,0.031,0.0408,0.0471,0.0623,0.068,0.0783,0.0854,0.0948,0.1001,0.101,0.1094,0.1215,0.1098,0.1215,0.1336,0.135,0.1261,0,0,0,0,0,0,0.0164,0.016,0.0164,0.018,0.0204,0.025,0.0307,0.0408,0.0458,0.0617,0.0664,0.0795,0.088,0.0932,0.0988,0.1009,0.1067,0.1185,0.1183,0.1328,0.134,0.1352,0.1265,0,0,0,0,0]},{"header":{"parameterUnit":"m.s-1","parameterCategory":2,"la1":30.2991,"la2":30.254,"lo1":-89.0895,"lo2":-89.0444,"dy":0.0017,"dx":0.0017,"nx":28,"ny":28,"refTime":"2024-03-19T09:00:00:Z","depth":"4","parameterNumber":3,"parameterNumberName":"V-component_of_CURRENTS"},"data":[0,0,0,0,0,0,0,0,0,0,0,0,0,0,0,0,0,0,0,0,0,0,0,0,0,0,0,0,0,0,0,0,0,0,0,0,0,0,0,0,0,0,0,0,0,0,0,0,0,0,0,0,0,0,0,0,0,0,0.0231,0.0231,0,0.0243,0.0244,0.0244,0.0242,0.0242,0.0242,0.0241,0.0258,0.0259,0.026,0,0,0,0,0,0,0,0,0,0,0,0,0,0.0236,0.0236,0.0231,0.0231,0.0231,0.0243,0.0244,0.0244,0.0242,0.0242,0.0241,0.0241,0.0258,0.0259,0.026,0,0,0,0,0,0,0,0,0,0,0,0,0,0.0241,0.0236,0.0231,0.0231,0.0231,0.0243,0.0244,0.0244,0.0242,0.0242,0.0241,0.0241,0.0258,0.0259,0.026,0.0276,0,0,0.0263,0.0264,0,0,0,0,0,0,0,0,0.0241,0.0241,0.0231,0.0231,0.0231,0.024,0.0252,0.0255,0.0242,0.0239,0.0241,0.0241,0.0252,0.0254,0.0259,0.0277,0.0277,0.0263,0.0264,0.0265,0.0265,0,0,0,0,0,0,0,0.024,0.024,0.0237,0.0231,0.0231,0.0241,0.0241,0.0252,0.0249,0.0239,0.0239,0.0239,0.0252,0.0257,0.0259,0.0278,0.0263,0.0264,0.0265,0.0266,0.0325,0.0325,0,0,0,0,0,0,0.0236,0.024,0.0237,0.0237,0.0234,0.0241,0.0241,0.0238,0.0249,0.025,0.0239,0.0239,0.0256,0.0258,0.026,0.0309,0.0265,0.0266,0.0266,0.0324,0.0325,0.0326,0,0,0,0,0,0,0.0236,0.0235,0.0236,0.0238,0.0239,0.0241,0.0238,0.0239,0.0247,0.0248,0.0249,0.0247,0.0256,0.0258,0.0282,0.0308,0.0266,0.0267,0.0323,0.0324,0.0325,0.0389,0,0,0,0,0,0,0.0236,0.0235,0.0236,0.0238,0.0239,0.0253,0.0239,0.0239,0.0247,0.0247,0.0256,0.0256,0.0255,0.028,0.0283,0.0309,0.0268,0.0321,0.0323,0.0325,0.0386,0.0392,0.0398,0,0,0,0,0,0.0236,0.0243,0.0236,0.0236,0.0238,0.0254,0.0256,0.0256,0.0248,0.026,0.0266,0.0256,0.0292,0.0282,0.0285,0.0312,0.0321,0.0323,0.0325,0.0383,0.0391,0.0398,0,0,0,0,0,0,0.0247,0.0243,0.0236,0.0241,0.0249,0.0253,0.0265,0.0261,0.0275,0.0275,0.0272,0.0274,0.0305,0.0297,0.0286,0.0332,0.0303,0.0306,0.0347,0.0354,0.036,0.0352,0.0269,0,0,0,0,0,0.0248,0.0253,0.0252,0.0258,0.0262,0.0263,0.0269,0.027,0.0279,0.0285,0.0291,0.0298,0.0315,0.0325,0.0336,0.0364,0.0314,0.0381,0.0387,0.0393,0.0387,0.0327,0.0327,0.0332,0.0332,0.0332,0,0,0.0253,0.0253,0.0254,0.0261,0.0266,0.0291,0.0267,0.0282,0.0308,0.0285,0.0323,0.0322,0.0327,0.0361,0.0373,0.0359,0.0365,0.0395,0.04,0.0391,0.0329,0.0328,0.0327,0.0334,0.0334,0.0333,0,0,0.0277,0.0267,0.0284,0.0296,0.0307,0.0312,0.0318,0.0328,0.0336,0.0369,0.0359,0.0368,0.04,0.0403,0.041,0.0454,0.0399,0.0463,0.0491,0.0434,0.0432,0.043,0.0364,0.0356,0.0467,0.0467,0.0467,0,0.0283,0.0304,0.0293,0.0321,0.0337,0.0325,0.0358,0.0371,0.0388,0.0392,0.0391,0.0414,0.042,0.0445,0.0467,0.0468,0.0419,0.0466,0.044,0.0437,0.0434,0.0367,0.0356,0.047,0.047,0.047,0.0469,0,0.0325,0.0346,0.0361,0.039,0.0407,0.0432,0.0445,0.046,0.0465,0.0467,0.0487,0.0488,0.0492,0.0505,0.0507,0.05,0.0466,0.0453,0.0419,0.0437,0.0365,0.0353,0.0475,0.0474,0.0473,0.0472,0,0,0.0324,0.0379,0.0386,0.041,0.0445,0.0459,0.0502,0.0524,0.0532,0.0548,0.0553,0.0587,0.056,0.0564,0.0556,0.0519,0.0464,0.0484,0.048,0.0414,0.0322,0.0298,0.0282,0.0442,0.044,0.0439,0.028,0,0.0362,0.0426,0.0444,0.0504,0.0536,0.0543,0.0581,0.0595,0.0597,0.0596,0.0584,0.059,0.0592,0.0588,0.0554,0.0485,0.0436,0.0507,0.0318,0.0312,0.0285,0.0269,0.0434,0.0271,0.0268,0.0266,0.0265,0,0.0397,0.0435,0.0505,0.0554,0.0567,0.0604,0.063,0.0661,0.0656,0.0652,0.0641,0.0616,0.0587,0.0573,0.0455,0.0498,0.0416,0.0356,0.0348,0.0292,0.0267,0.0249,0.0243,0.0244,0.0246,0.0248,0.0249,0,0.04,0.0472,0.0528,0.0549,0.0608,0.0636,0.0665,0.0678,0.0691,0.0676,0.066,0.062,0.0582,0.0492,0.0389,0.0409,0.0229,0.0235,0.0131,0.0127,0.0168,0.0172,0.0128,0.0128,0.0128,0.0129,0.0129,0,0.0429,0.0468,0.0537,0.0566,0.0618,0.0654,0.0691,0.0706,0.0715,0.0707,0.0685,0.0646,0.0556,0.0452,0.0365,0.0208,0.0203,0.0121,0.0083,0.02,0.0209,0.0159,0.0164,0.0123,0.0124,0.0125,0.0126,0,0.0423,0.0474,0.053,0.0601,0.0625,0.066,0.0716,0.073,0.074,0.0723,0.0718,0.0643,0.0503,0.0398,0.0224,0.0163,0.0028,-0.003,0.0089,0.0062,-0.0033,-0.0022,-0.0168,-0.017,-0.0172,-0.0174,-0.0175,0,0.0427,0.0461,0.0542,0.0575,0.0613,0.0669,0.0704,0.0742,0.075,0.0709,0.0689,0.0565,0.0497,0.0235,0.0131,-0.0057,-0.0071,-0.0139,-0.0065,-0.0042,-0.0065,-0.005,-0.0037,-0.0178,-0.0179,-0.0179,-0.018,0,0.042,0.0452,0.0494,0.0564,0.0614,0.0661,0.0712,0.0714,0.0733,0.0737,0.0641,0.0525,0.0354,0.0197,0.0049,-0.0075,-0.0085,-0.0159,-0.0155,-0.0086,-0.0056,-0.0073,-0.0058,-0.0186,-0.0185,-0.0185,-0.0184,0,0.04,0.0422,0.048,0.0538,0.0599,0.0638,0.0668,0.0672,0.0683,0.0654,0.0605,0.0458,0.038,0.0181,0.0045,-0.0077,-0.0097,-0.011,-0.0109,-0.0103,-0.0017,0.0035,-0.0116,0,0,0,0,0,0.0375,0.0402,0.0451,0.0514,0.0573,0.0612,0.0663,0.0687,0.0696,0.0629,0.0627,0.0475,0.0264,0.0173,0.004,0.0007,-0.0121,-0.0151,-0.0135,-0.0222,-0.0215,-0.0125,0,0,0,0,0,0,0.0357,0.0399,0.0434,0.0484,0.0522,0.0583,0.0614,0.0626,0.0596,0.0589,0.0476,0.0446,0.024,0.0333,0.0035,-0.0002,-0.0007,-0.0239,-0.0242,-0.0227,-0.022,-0.0214,-0.0119,0,0,0,0,0]}]]